Flint, MI

7:13 AM EDT on May 25, 2017 (GMT -0400)
Bishop International

Weather History for KFNT - November, 2012

Change the Weather History Date:

Monday, November 5, 2012

  Actual Average Record
Temperature  
Mean Temperature 33 °F 43 °F  
Max Temperature 41 °F 52 °F 76 °F (1978)
Min Temperature 24 °F 34 °F 14 °F (1951)
Degree Days  
Heating Degree Days 32 22  
Month to date heating degree days 141 107  
Since 1 July heating degree days 747 803  
Cooling Degree Days 0 0  
Month to date cooling degree days 0 0  
Year to date cooling degree days 864 531  
Moisture  
Dew Point 27 °F    
Average Humidity 72    
Maximum Humidity 85    
Minimum Humidity 59    
Precipitation  
Precipitation 0.00 in 0.09 in 1.87 in (1990)
Month to date precipitation T 0.45  
Year to date precipitation 27.62 27.23  
Snow  
Snow 0.00 in 0.00 in 0.30 in (1982)
Month to date snowfall T 0.1  
Since 1 July snowfall 0.3 0.5  
Since 1 September snowfall 0.3 0.5  
Snow Depth 0.00 in    
Sea Level Pressure  
Sea Level Pressure 30.22 in    
Wind  
Wind Speed 3 mph (North)    
Max Wind Speed 12 mph    
Max Gust Speed 14 mph    
Visibility 10 miles    
Events      
T = Trace of Precipitation, MM = Missing Value Source: NWS Daily Summary

Daily Weather History Graph

Daily Weather History Graph

Search for Another Location

Airport or City:

Trip Planner

Search our weather history database for the weather conditions in past years. The results will help you decide how hot, cold, wet, or windy it might be!

Date:

Astronomy

Nov. 05, 2012 Rise Set
Actual Time 7:15 AM EST 5:21 PM EST
Civil Twilight 6:45 AM EST 5:51 PM EST
Nautical Twilight 6:11 AM EST 6:24 PM EST
Astronomical Twilight 5:38 AM EST 6:58 PM EST
Moon 10:58 PM EST (11/5) 12:34 PM EST (11/5)
Length of Visible Light 11h 05m
Length of Day
10h 06m
Waning Gibbous, 63% of the Moon is Illuminated
Nov 5
Waning Gibbous
Nov 6
Last Quarter
Nov 13
New
Nov 20
First Quarter
Nov 28
Full

Hourly Weather History & Observations

Time (EST) Temp. Windchill Dew Point Humidity Pressure Visibility Wind Dir Wind Speed Gust Speed Precip Events Conditions
12:53 AM 28.0 °F - 24.1 °F 85% 30.21 in 8.0 mi Calm Calm - N/A   Overcast
1:53 AM 30.0 °F - 26.1 °F 85% 30.20 in 8.0 mi Calm Calm - N/A   Overcast
2:53 AM 30.0 °F 25.2 °F 26.1 °F 85% 30.21 in 9.0 mi West 4.6 mph - N/A   Overcast
3:53 AM 30.9 °F - 26.1 °F 82% 30.22 in 10.0 mi Calm Calm - N/A   Overcast
4:53 AM 30.9 °F - 25.0 °F 79% 30.22 in 10.0 mi Calm Calm - N/A   Overcast
5:42 AM 30.2 °F 26.7 °F 26.6 °F 86% 30.20 in 9.0 mi West 3.5 mph - N/A   Overcast
5:53 AM 30.9 °F - 26.1 °F 82% 30.23 in 9.0 mi Calm Calm - N/A   Overcast
6:24 AM 32.0 °F 28.7 °F 26.6 °F 80% 30.20 in 10.0 mi WNW 3.5 mph - N/A   Overcast
6:53 AM 32.0 °F - 27.0 °F 82% 30.24 in 9.0 mi Calm Calm - N/A   Overcast
7:08 AM 32.0 °F - 26.6 °F 80% 30.20 in 10.0 mi Calm Calm - N/A   Overcast
7:53 AM 33.1 °F - 27.0 °F 78% 30.24 in 9.0 mi Calm Calm - N/A   Overcast
8:53 AM 36.0 °F 33.3 °F 28.0 °F 73% 30.24 in 10.0 mi NW 3.5 mph - N/A   Partly Cloudy
9:53 AM 37.9 °F 33.5 °F 28.9 °F 70% 30.25 in 10.0 mi NNE 5.8 mph - N/A   Overcast
10:50 AM 37.4 °F 31.4 °F 28.4 °F 70% 30.22 in 10.0 mi North 8.1 mph - N/A   Overcast
10:53 AM 37.9 °F 32.1 °F 28.0 °F 68% 30.26 in 10.0 mi North 8.1 mph - N/A   Overcast
11:53 AM 39.0 °F 34.8 °F 28.9 °F 67% 30.24 in 10.0 mi North 5.8 mph - N/A   Overcast
12:22 PM 39.2 °F 35.9 °F 28.4 °F 65% 30.21 in 10.0 mi NNE 4.6 mph - N/A   Overcast
12:53 PM 39.9 °F 35.8 °F 28.0 °F 63% 30.23 in 10.0 mi NNE 5.8 mph - N/A   Overcast
1:42 PM 39.2 °F 33.0 °F 28.4 °F 65% 30.18 in 10.0 mi North 9.2 mph - N/A   Overcast
1:53 PM 39.9 °F 35.1 °F 28.0 °F 63% 30.22 in 10.0 mi NNW 6.9 mph - N/A   Overcast
2:53 PM 39.9 °F 35.1 °F 27.0 °F 60% 30.21 in 10.0 mi NNE 6.9 mph - N/A   Overcast
3:05 PM 39.2 °F 34.2 °F 28.4 °F 65% 30.18 in 10.0 mi NNE 6.9 mph - N/A   Overcast
3:53 PM 39.0 °F 34.8 °F 28.0 °F 65% 30.20 in 10.0 mi North 5.8 mph - N/A   Overcast
4:20 PM 39.2 °F 33.6 °F 28.4 °F 65% 30.18 in 10.0 mi North 8.1 mph - N/A   Overcast
4:53 PM 37.9 °F 32.1 °F 27.0 °F 65% 30.21 in 10.0 mi North 8.1 mph - N/A   Overcast
5:53 PM 37.0 °F 32.4 °F 27.0 °F 67% 30.21 in 10.0 mi North 5.8 mph - N/A   Overcast
6:53 PM 36.0 °F 29.0 °F 27.0 °F 70% 30.22 in 10.0 mi NNE 9.2 mph - N/A   Mostly Cloudy
7:53 PM 34.0 °F - 26.1 °F 73% 30.21 in 10.0 mi Calm Calm - N/A   Clear
8:53 PM 32.0 °F - 26.1 °F 79% 30.21 in 10.0 mi Calm Calm - N/A   Partly Cloudy
9:53 PM 28.0 °F - 25.0 °F 88% 30.21 in 10.0 mi Calm Calm - N/A   Clear
10:53 PM 28.0 °F - 24.1 °F 85% 30.20 in 10.0 mi Calm Calm - N/A   Overcast
11:53 PM 28.9 °F - 26.1 °F 89% 30.19 in 10.0 mi Calm Calm - N/A   Overcast